www.pogodaiklimat.ru

Погода и климат >> Архив погоды >> Мексика >> Ла-Пас


ПОГОДА в Ла-Пасе

  • Прогноз погоды в Ла-Пасе
  • Монитор погоды в Ла-Пасе

АРХИВ ПОГОДЫ в Ла-Пасе

Время (UTC), дата Ветер
(напр.,м/с)
 
Видим.   Явления Облачность Т
(С)
Тd
(С)
f
(%)
Тe
(С)
Тes
(С)
Комфортность P
(гПа)
Po
(гПа)
Тmin
(С)
Tmax
(С)
R
(мм)
R24
(мм)
S
(см)
03 16.05 Ю 5 2000 м ясно +22.8 +15.4 63 +27 +27 душно 1011.5 1009.5
06 16.05 Ю 5 2000 м ясно +19.7 +15.1 75 +22 +22 комфорт 1013.2 1011.1 +35.0
09 16.05 Ю 4 2000 м 3/0
[Ci fib]
+17.4 +15.0 86 +17 +17 1012.6 1010.5
12 16.05 Ю 4 2000 м 4/4 1200 м
[Sc diur, vesp]
+15.9 +15.0 94 +15 +15 1012.1 1010.0 +15.4 +35.0
00 17.05 ЮЗ 2 30 км ясно +34.4 +15.1 32 +36 +41 душно 1009.8 1007.8 +15.2 +36.0
03 17.05 Ю 3 2000 м ясно +23.8 +15.5 60 +27 +27 жарко 1011.6 1009.5
06 17.05 Ю 5 2000 м ясно +19.6 +15.5 77 +21 +21 комфорт 1013.4 1011.3 +36.0
09 17.05 Ю 4 2000 м ясно +17.8 +15.0 84 +18 +18 1012.6 1010.5
12 17.05 Ю 4 2000 м ясно +16.6 +14.5 87 +16 +16 1012.1 +16.2 +36.0
00 18.05 СЗ 3 30 км ясно +32.2 +13.2 32 +33 +37 жарко 1009.2 1007.1 +16.2 +33.4
03 18.05 СЗ 2 2000 м ясно +25.0 +20.7 77 +31 +31 очень
душно
1010.1 1008.1
06 18.05 Ю 4 2000 м ясно +21.5 +14.3 64 +24 +24 комфорт 1011.6 1009.5 +33.4
09 18.05 Ю 3 2000 м ясно +18.6 +13.7 73 +19 +19 1011.1 1009.0
12 18.05 Ю 2 2000 м ясно +16.8 +14.0 84 +17 +17 1011.3 1009.2 +16.6 +33.4
15 18.05 Ю 3 30 км ясно +19.6 +14.6 73 +22 +26 комфорт 1012.2 1010.1
18 18.05 СЗ 2 30 км ясно +27.9 +15.0 45 +30 +50 жарко 1012.5 1010.4 +28.5
21 18.05 С 5 30 км ясно +31.1 +17.8 45 +35 +45 очень
душно
1011.1 1009.0
00 19.05 СЗ 3 30 км ясно +30.4 +17.9 47 +35 +38 очень
душно
1010.1 1008.0 +16.0 +32.0
03 19.05 Ю 4 2000 м ясно +25.2 +14.0 50 +28 +28 жарко 1010.8 1008.7
06 19.05 Ю 4 2000 м ясно +19.9 +14.2 70 +22 +22 комфорт 1012.2 1010.2 +16.0 +32.0
09 19.05 Ю 3 2000 м ясно +17.7 +13.8 78 +18 +18 1011.4 1009.3
12 19.05 Ю 2 2000 м ясно +17.0 +13.8 81 +17 +17 1011.2 1009.1 +16.8 +32.0
15 19.05 Ю 2 30 км ясно +21.8 +14.1 62 +25 +30 комфорт 1011.8 1009.7
18 19.05 З 2 30 км ясно +30.3 +15.4 40 +33 +53 опасность
солнечного
удара
1011.6 1009.5 +16.0 +30.3
21 19.05 СЗ 4 30 км ясно +32.8 +9.1 23 +32 +44 жарко 1010.5 1008.4
00 20.05 З 3 30 км ясно +34.7 +11.3 24 +34 +38 очень
жарко
1009.0 1006.9 +16.0 +35.5
03 20.05 Ю 4 2000 м ясно +26.9 +11.7 39 +28 +28 жарко 1010.1 1008.1
06 20.05 Ю 4 2000 м ясно +22.5 +12.5 53 +25 +25 комфорт 1011.6 1009.5 +35.5
09 20.05 Ю 4 2000 м ясно +17.2 +14.8 86 +17 +17 1011.6 1009.5
12 20.05 Ю 3 2000 м ясно +16.4 +16 +16 1011.6 1009.5 +16.0 +35.5
00 21.05 СЗ 4 30 км 4/0
[Ci fib]
+33.4 +10.1 24 +33 +35 жарко 1009.3 1007.2 +15.9 +34.6
03 21.05 СЗ 1 2000 м 4/0
[Ci fib]
+28.4 +14.9 44 +31 +31 душно 1010.7 1008.6
06 21.05 Ю 4 2000 м 1/0
[Ci fib]
+21.8 +14.7 64 +25 +25 комфорт 1011.6 1009.5 +34.6
09 21.05 Ю 3 2000 м ясно +19.4 +14.2 72 +21 +21 комфорт 1011.6 1009.5
12 21.05 Ю 1 2000 м ясно +16.8 +13.6 81 +18 +18 1011.6 1009.6 +16.4 +34.6
15 21.05 Ю 2 30 км 3/0
[Ci fib]
+20.8 +13.5 63 +24 +29 комфорт 1011.7 1009.6
00 22.05 СЗ 5 30 км ясно +28.8 +15.4 44 +32 +34 душно 1008.4 1006.3 +16.2 +30.9
03 22.05 З 2 2000 м ясно +25.0 +18.7 68 +30 +30 душно 1009.1 1007.0
06 22.05 Ю 3 2000 м ясно +20.4 +12.6 61 +23 +23 комфорт 1010.1 1008.0 +16.2 +30.9
09 22.05 Ю 5 2000 м ясно +17.6 +13.3 76 +17 +17 1009.6 1007.5
12 22.05 Ю 4 2000 м ясно +15.7 +13.4 86 +15 +15 1010.0 1007.9 +15.2 +30.9
15 22.05 Ю 4 30 км ясно +18.6 +11.5 63 +19 +23 1011.5 1009.4
18 22.05 Ю 3 30 км ясно +27.6 +10.6 35 +28 +45 жарко 1010.8 1008.7 +14.6 +27.6
21 22.05 С 4 30 км ясно +29.9 +10.4 30 +30 +43 жарко 1009.1 1007.0
00 23.05 З 3 30 км ясно +32.2 +12.8 31 +33 +37 жарко 1008.0 1005.9 +14.6 +32.9

 

Местоположение метеостанции Ла-Пас (Мексика): широта 24.17 долгота -110.30 высота над уровнем моря 18 м.

В архиве по умолчанию представлена погода в Ла-Пасе за последнюю неделю. Архивные данные за месяц целиком и за предыдущие месяцы, начиная с января 2011 года, Вы можете получить, выбрав интересующий диапазон дат из раскрывающегося списка и нажав кнопку "Ввод!".


*Определитесь, кто Вы:
робот инопланетянин человек

Внимание! Время в таблицах - всемирное. Для получения местного времени необходимо прибавить поправку, которая равна -6 ч.

Смотрите также архив погоды в соседних городах и на ближайших метеорологических станциях:

Погода в Сьюдад-Конститусьоне (Мексика) (166 км)
Погода в Лорето (Мексика) (229 км)
Погода в Кульякане (Мексика) (302 км)
Погода в Чойсе (Мексика) (354 км)
Погода в Сьюдад-Обрегоне (Мексика) (361 км)
Погода в Санта-Розалии (Мексика) (397 км)
Погода в Мазатлане (Мексика) (412 км)
Погода в Гуаймасе (Мексика) (421 км)
Погода в Эмпальме (Мексика) (422 км)
Погода в Тепеуанесе (Мексика) (481 км)

Пояснения к столбцам:

Ветер - указаны скорость ветра в м/с - средняя за 10 мин, порывы в срок и между сроками (в фигурных скобках) и направление, откуда дует ветер: С - северный, СВ - северо-восточный, В - восточный, ЮВ - юго-восточный, Ю - южный, ЮЗ - юго-западный, З - западный, СЗ - северо-западный.
Видимость - горизонтальная дальность видимости в метрах или километрах. При видимости от 1 до 10 км при отсутствии осадков обычно наблюдается дымка, при ухудшении видимости до 1 км и менее - туман. В сухую погоду видимость может ухудшаться дымом, пылью или мглою.
Явления - указаны атмосферные явления, наблюдавшиеся в срок или в последний час перед сроком; фигурными скобками обозначены явления, наблюдавшиеся между сроками (за 1-3 часа до срока); квадратными скобками обозначены град или гололедные отложения с указанием их диаметра в мм.
Облачность - указаны через наклонную черту общая и нижняя облачность в баллах и высота нижней границы облаков в метрах; квадратными скобками обозначены формы облаков: Ci - перистые, Cs - перисто-слоистые, Cc - перисто-кучевые, Ac - высококучевые, As - высокослоистые, Sc - слоисто-кучевые, Ns - слоисто-дождевые, Cu - кучевые, Cb - кучево-дождевые. Подробнее классификацию облаков см. в Атласе облаков (PDF).
T - Температура воздуха - температура, измеренная на высоте 2 м над землей.
Td - Температура точки росы - температура, при понижении до которой содержащийся в воздухе водяной пар достигнет насыщения.
f - Относительная влажность воздуха - влажноcть воздуха, измеренная на высоте 2 м над землей.
Te - Эффективная температура - температура, которую ощущает одетый по сезону человек в тени. Характеристика душности погоды. При расчете учитывается влияние влажности воздуха и скорости ветра на теплоощущения человека.
Tes - Эффективная температура на солнце - температура, которую ощущает человек, с поправкой на солнечный нагрев. Характеристика знойности погоды. Зависит от высоты солнца над горизонтом, облачности и скорости ветра. Ночью, в пасмурную погоду, а также при ветре 12 м/с и более поправка равна нулю.
P - Атмосферное давление - приведенное к уровню моря атмосферное давление.
Po - Атмосферное давление - измеренное на уровне метеостанции атмосферное давление.
Tmin - Минимальная температура - минимум температуры воздуха на высоте 2 м над землей.
Tmax - Максимальная температура - максимум температуры воздуха на высоте 2 м над землей.
R - Количество осадков - Количество выпавших осадков за период времени, мм. При наведении курсора мыши на число - период времени, за который выпало указанное количество осадков.
R24 - Количество осадков - Количество выпавших осадков за 24 часа, мм.
S - Снежный покров - Высота снежного покрова, см. При наведении курсора мыши на число - состояние снежного покрова и степень покрытия местности в баллах.